Nantucket, MA

9:00 PM EST on February 25, 2017 (GMT -0500)
Wauwinet | | Change Station

Elev 20 ft 41.33 °N, 69.99 °W | Updated 6 seconds ago

Overcast
Overcast
51.5 °F
Feels Like 51.5 °F
N
7.0
Wind Variable Wind from South
Gusts 17.0 mph

Today
High -- | Low -- °F
--% Chance of Precip.
Yesterday
High -- | Low -- °F
Precip. -- in
Pressure 29.52 in
Visibility 0.5 miles
Clouds
Dew Point 51 °F
Humidity 98%
Rainfall 0.00 in
Snow Depth Not available.
6:20 AM 5:26 PM
Waning Crescent, 0% visible
METAR KACK 260153Z AUTO 15007KT 1/2SM R24/3000V3500FT -RA FG VV003 08/08 A2952 RMK AO2 SLP997 P0000 T00780078
Pressure 29.52 in
Visibility 0.5 miles
Clouds
Dew Point 51 °F
Humidity 98%
Rainfall 0.00 in
Snow Depth Not available.
6:20 AM 5:26 PM
Waning Crescent, 0% visible
METAR KACK 260153Z AUTO 15007KT 1/2SM R24/3000V3500FT -RA FG VV003 08/08 A2952 RMK AO2 SLP997 P0000 T00780078

Get Your Daily Forecast Email!

Thanks for signing up!

Be on the lookout for a verification email in your inbox.

You'll start receiving the daily forecast at 8 AM.

×

10-Day Weather Forecast

Almanac

Astronomy

Feb. 25, 2017 Rise Set
Actual Time
Civil Twilight
Nautical Twilight
Astronomical Twilight
Moon
Length of Visible Light
Length of Day
Tomorrow will be .
, % of the Moon is Illuminated

Today's Extremes

State Highs State Lows

Community

WunderPhotos

Upload Photos

1,962,540 photos uploaded!

WunderBlog® & News

Nearby

Air Quality

  Air Quality AQ Index Pollutant
Not available.

Snow Depth

Station Depth Elevation

Earthquake Activity

City Distance Mag. Time & Date
Minimum magnitude displayed is 2.5.

Coastal Water Temperatures

Place Temperature

Stations

Nearby Weather Stations

Station Location Temp. Windchill Dew Point Humidity Wind Precip. Elev Updated Type
                   

Watches & Warnings

There are currently no watches in effect.